Lid_Strength_Index
0 0 1 2 3 3 4 4 4 3 3 3 3 2 2 2 1 1 1 1 1 1 1 1 1 1 0
2 2 2 3 4 4 4 4 5 4 3 3 3 2 2 2 1 1 1 1 1 1 1 2 1 1 0
3 4 4 4 4 5 5 6 6 5 5 4 4 3 3 2 2 1 1 2 2 2 2 2 2 0 -1
4 5 6 6 7 7 7 7 6 6 5 5 5 5 4 4 3 2 2 3 3 3 3 3 1 -0 -1
5 6 7 7 7 8 8 7 7 6 5 5 5 5 5 5 4 3 3 3 2 2 3 2 1 -0 -1
6 7 7 7 8 8 7 7 6 6 6 5 5 5 5 5 5 4 4 3 2 2 2 2 1 -1 -0
7 8 7 7 8 8 7 6 6 6 6 6 5 5 5 5 5 4 3 3 3 3 3 2 1 -1 -1
6 8 7 7 8 8 7 6 6 6 6 6 5 5 5 5 5 4 4 3 3 3 3 2 1 -1 0
7 7 7 7 8 8 7 6 7 7 7 6 5 5 5 5 4 4 3 2 3 3 3 2 2 0 -1
7 7 7 8 8 8 7 6 6 7 7 6 6 5 5 5 5 4 4 3 3 4 3 3 3 1 -1
7 7 7 8 8 8 7 6 7 7 7 6 6 5 5 5 5 4 4 4 4 4 4 3 3 4 2
7 7 8 8 8 7 7 7 7 7 7 7 6 5 5 5 5 5 4 4 4 4 4 3 4 4 4
8 8 9 9 8 8 7 7 8 7 7 6 6 5 5 5 5 5 5 5 5 4 3 3 3 4 5
7 8 8 9 9 8 7 7 7 7 6 6 5 5 5 5 5 5 5 5 5 5 4 5 5 4 4
7 9 9 9 9 9 8 8 7 6 6 5 5 5 5 4 5 5 5 5 5 5 5 4 6 6 6
8 8 8 9 9 9 8 8 7 6 6 5 5 5 5 4 5 4 5 5 5 5 5 5 4 4 7